Regional Weather Roundup
Issued by NWS State College, PA

Home | Current Version | Previous Version | Graphics & Text | Print | Product List | Glossary On
Versions: 1 2 3 4 5 6 7 8 9 10 11 12 13 14 15 16 17 18 19 20 21 22 23 24 25 26 27 28 29 30 31 32 33 34 35 36 37 38 39 40 41 42 43 44 45 46 47 48 49 50
000
ASUS41 KCTP 171703
RWRCTP

REGIONAL WEATHER ROUNDUP
NATIONAL WEATHER SERVICE STATE COLLEGE PA
100 PM EDT WED SEP 17 2014

Note: "fair" indicates few or no clouds below 12,000 feet with no
significant weather and/or obstructions to visibility.

* = STATION THAT DOES NOT REPORT PRECIPITATION /E.G. RAIN...SNOW...ETC/
    THUNDER OR FOG.

PAZ002>004-007>009-013>016-020>023-029>032-171800-
WESTERN PENNSYLVANIA

CITY           SKY/WX    TMP DP  RH WIND       PRES   REMARKS
ERIE           PTSUNNY   66  46  48 S8        30.02F
MEADVILLE      NOT AVBL
FRANKLIN*      SUNNY     63  43  48 CALM      30.05F
NEW CASTLE     NOT AVBL
BEAVER COUNTY  MOSUNNY   66  46  48 SW9       30.03F
BUTLER*        PTSUNNY   64  46  52 NW6       30.06S
PITTSBURGH INT PTSUNNY   66  48  52 N7        30.02F
PITTSBURGH     MOSUNNY   66  46  48 VRB3      30.02F
INDIANA*       CLOUDY    64  50  59 SW8       30.07F
LATROBE        NOT AVBL
WASHINGTON CO* MOSUNNY   66  48  52 CALM      30.04F
$$

PAZ004>006-010>012-017>019-024>028-033>037-041-042-045-046-049>053-171800-
CENTRAL PENNSYLVANIA

CITY           SKY/WX    TMP DP  RH WIND       PRES   REMARKS
BRADFORD       SUNNY     60  40  47 VRB3      30.03F
DUBOIS         NOT AVBL
CLEARFIELD     NOT AVBL
JOHNSTOWN      NOT AVBL
ALTOONA        SUNNY     65  47  52 CALM      30.04F
STATE COLLEGE  PTSUNNY   63  46  55 S6        30.04F
WILLIAMSPORT   NOT AVBL
SELINSGROVE    SUNNY     69  45  41 CALM      30.04F
FT INDIANTOWN  MOSUNNY   68  45  42 VRB1      30.03F
CAPITAL CITY   NOT AVBL
HARRISBURG     NOT AVBL
YORK           CLOUDY    70  46  42 VRB5      30.03F
$$

PAZ038>040-043-044-047-048-054-055-060>062-067>071-171800-
EASTERN PENNSYLVANIA

CITY           SKY/WX    TMP DP  RH WIND       PRES   REMARKS
SCRANTON       NOT AVBL
MOUNT POCONO   PTSUNNY   63  39  41 VRB3      30.04F
ALLENTOWN      MOSUNNY   70  45  40 CALM      30.03F
QUAKERTOWN*    NOT AVBL
READING        NOT AVBL
LANCASTER      MOSUNNY   70  46  42 W8        30.03F
COATESVILLE    NOT AVBL
POTTSTOWN      NOT AVBL
BLUE BELL      SUNNY     72  48  43 W5        30.04F
DOYLESTOWN     NOT AVBL
WILLOW GROVE   NOT AVBL
NORTH PHILA    NOT AVBL
PHILADELPHIA   NOT AVBL
$$



USA.gov is the U.S. government's official web portal to all federal, state and local government web resources and services.